Regional Weather Roundup
Issued by NWS Jackson, KY

Home | Current Version | Previous Version | Graphics & Text | Print | Product List | Glossary On
Versions: 1 2 3 4 5 6 7 8 9 10 11 12 13 14 15 16 17 18 19 20 21 22 23 24 25 26 27
000
ASUS43 KJKL 151510
RWRJKL

EAST KENTUCKY HOURLY WEATHER ROUNDUP
NATIONAL WEATHER SERVICE JACKSON KY
1000 AM EST FRI DEC 15 2017

NOTE: "FAIR" INDICATES FEW OR NO CLOUDS BELOW 12,000 FEET WITH
NO SIGNIFICANT WEATHER AND/OR OBSTRUCTIONS TO VISIBILITY.

* THESE REPORTS ARE NOT UNDER NWS QUALITY CONTROL AND MAY NOT
  REPORT WEATHER SUCH AS PRECIPITATION AND FOG.

KYZ079-080-083-085-087-088-110-112-115-119-120-151600
...EASTERN KENTUCKY...

CITY           SKY/WX    TMP DP  RH WIND       PRES   REMARKS
JACKSON        CLOUDY    28  19  69 VRB6      30.04R WCI  22
LONDON         CLOUDY    29  18  63 W6        30.08R WCI  23
SOMERSET*      CLOUDY    30  19  64 W12       30.12R WCI  21
MONTICELLO*    CLOUDY    31  23  72 NW10      30.12R WCI  22
WILLIAMSBURG*  CLOUDY    30  19  64 NW3       30.09R
MIDDLESBORO*   CLOUDY    32  24  71 NW6       30.07R WCI  27
HARLAN APT*    CLOUDY    32  23  69 SW5       30.03R WCI  27
PIKE CO APT*   CLOUDY    29  22  75 CALM      30.01R
BIG SANDY APT* CLOUDY    30  22  71 W8        30.03R WCI  22
MOREHEAD APT*  CLOUDY    27  18  69 CALM      30.07R
$$

KYZ035-036-041-042-044-050-067-078-099-151600
...CENTRAL KENTUCKY...

CITY           SKY/WX    TMP DP  RH WIND       PRES   REMARKS
MT STERLING*   CLOUDY    30  19  64 W8        30.07R WCI  23
FLEMING/MASON* SUNNY     26  20  77 W9        30.07R WCI  17
DANVILLE*      CLOUDY    30  19  64 W9        30.10R WCI  22
LEXINGTON      MOSUNNY   31  19  61 W10       30.08R WCI  22
FRANKFORT      CLOUDY    30  18  60 SW7       30.07R WCI  23
LOUISVILLE     CLOUDY    32  20  61 W12       30.10R WCI  23
LEBANON*       CLOUDY    30  21  69 SW6       30.11R WCI  24
GLASGOW*       CLOUDY    31  22  68 W9        30.14R WCI  23
BOWLING GREEN  CLOUDY    32  20  61 W12       30.16R WCI  23
$$

KYZ091>093-OHZ055-061-077-WVZ005-015-034-035-042-151600
...SOUTHERN OHIO/WEST VIRGINIA...

CITY           SKY/WX    TMP DP  RH WIND       PRES   REMARKS
COVINGTON      CLOUDY    25  19  78 SW8       30.03R WCI  16
COLUMBUS       PTSUNNY   23  16  74 SW9       29.99F WCI  13
DAYTON         CLOUDY    23  18  81 SW13      29.99S WCI  11
WILMINGTON     MOSUNNY   23  18  81 SW9       30.00R WCI  13
HUNTINGTON     CLOUDY    27  18  69 W6        30.04R WCI  20
CHARLESTON     CLOUDY    30  20  66 SW5       30.01R WCI  25
PINEVILLE*       N/A     31  23  72 MISG      30.03R
BECKLEY        CLOUDY    28  21  75 W7        29.92R WCI  21
BLUEFIELD      CLOUDY    28  22  78 W6        29.91R WCI  22
LOGAN CO APT*  CLOUDY    28  21  74 CALM      29.98R
$$

VAZ002-007-008-TNZ017-027-036-066-071-151600
...SOUTHWEST VIRGINIA/EAST TENNESSEE...

CITY           SKY/WX    TMP DP  RH WIND       PRES   REMARKS
WISE*          CLOUDY    30  25  80 W6        29.96R WCI  24
JONESVILLE*    CLOUDY    32  23  69 W8        30.06R WCI  25
ABINGDON*      CLOUDY    31  28  92 W6        29.98R WCI  25
BRISTOL        CLOUDY    28  27  96 CALM      30.02R
MORRISTOWN*    CLOUDY    34  27  75 NW6       30.03R WCI  29
SEVIERVILLE*   CLOUDY    32  28  86 CALM      30.06R
KNOXVILLE      CLOUDY    32  31  96 SW8       30.08R WCI  25
LAFOLLETTE*    CLOUDY    34  23  64 VRB5      30.11R WCI  30
OAK RIDGE      CLOUDY    35  27  72 VRB3      30.08R
CROSSVILLE     CLOUDY    26  21  81 NW8       30.06R WCI  18
NASHVILLE      CLOUDY    34  20  56 NW8       30.17R WCI  27
$$

...KEY TO REMARKS...
VSB - VISIBILITY IN MILES
WCI - WIND CHILL INDEX
HX  - HEAT INDEX

$$




USA.gov is the U.S. government's official web portal to all federal, state and local government web resources and services.